Location: Morisset
(33.1080°S, 151.4871°E)
Time: 08:19:41
(UTC+00:00)

Cosmos 1072 Rocket - Pass Details

Date: 29 October 2020
Orbit: 948 x 1009 km, 82.9° (Epoch: 27 November)

Event Time Altitude Azimuth Distance (km) Brightness Sun altitude
Exits shadow 16:37:03 59° 358° (N) 1,094 4.5 -26.6°
Maximum altitude 16:38:19 89° 84° (E) 962 4.3 -26.4°
Drops below altitude 10° 16:44:32 10° 174° (S) 2,711 7.4 -25.3°
Sets 16:47:04 0° 173° (S) 3,670 8.2 -24.9°
